Location: Chiroubles
(46.1812°N, 4.6660°E)
Time: 16:01:41
(UTC+00:00)

ERS-1 Rocket - Pass Details

Date: 15 August 2020
Orbit: 753 x 757 km, 98.5° (Epoch: 22 September)

Event Time Altitude Azimuth Distance (km) Brightness Sun altitude
Exits shadow 20:16:14 19° 108° (ESE) 1,743 4.3 -13.9°
Maximum altitude 20:18:46 29° 64° (ENE) 1,366 4.1 -14.2°
Drops below altitude 10° 20:23:03 10° 6° (N) 2,290 5.9 -14.8°
Sets 20:25:36 0° 356° (N) 3,219 6.9 -15.1°
